Regional Weather Roundup
Issued by NWS

Home | Current Version | Previous Version | Text Only | Print | Product List | Glossary On
Versions: 1 2 3 4 5 6 7 8 9 10 11 12 13 14 15 16 17 18 19 20 21 22 23 24 25 26 27 28 29 30 31 32 33 34 35 36 37 38 39 40 41 42 43 44 45 46 47 48 49 50
000
ASUS43 KOAX 201910
RWRNE

WEATHER ROUNDUP FOR NEBRASKA
NATIONAL WEATHER SERVICE OMAHA NE
200 PM CDT SUN AUG 20 2017

NOTES: SATELLITE DATA IS BEING USED TO AUGMENT CLOUD COVER ABOVE
       12000 FEET.
       "FAIR" INDICATES FEW OR NO CLOUDS BELOW 12,000 FEET WITH NO
       SIGNIFICANT WEATHER AND/OR OBSTRUCTIONS TO VISIBILITY.


NEZ001>004-019>022-054>056-202000-
NEBRASKA PANHANDLE

CITY           SKY/WX    TMP DP  RH WIND       PRES   REMARKS
SCOTTSBLUFF    SUNNY     83  54  36 E12       30.06F
ALLIANCE       SUNNY     81  55  40 E15       30.05F
CHADRON        SUNNY     83  51  33 E16       30.04F
GORDON         FAIR      82  50  33 E15G22    30.07S
KIMBALL        SUNNY     79  58  47 NE10G17   30.12R
SIDNEY         SUNNY     84  62  47 NE12      30.07F
$$

NEZ057>060-069>072-079>082-202000-
SOUTHWEST NEBRASKA

CITY           SKY/WX    TMP DP  RH WIND       PRES   REMARKS
NORTH PLATTE   SUNNY     85  67  54 E10       29.95S
IMPERIAL       SUNNY     86  62  44 E9        29.97S
LEXINGTON      SUNNY     83  72  68 E8        29.93F
MCCOOK         SUNNY     89  60  37 E6        29.92F
OGALLALA       SUNNY     87  63  45 E9        29.99S
$$

NEZ005>010-023>029-035>040-094-202000-
NORTH CENTRAL NEBRASKA

CITY           SKY/WX    TMP DP  RH WIND       PRES   REMARKS
VALENTINE      SUNNY     84  55  36 NE13      30.03F
AINSWORTH      SUNNY     81  62  51 NE16      30.01R
BROKEN BOW     SUNNY     82  68  62 E12       29.96S
O`NEILL        SUNNY     82  67  59 E9        29.97R
ORD            SUNNY     82  67  60 E10       29.93F
THEDFORD       CLOUDY    82  64  54 E13       30.01R
$$

NEZ041-046>049-061>064-073>077-083>087-202000-
SOUTH CENTRAL NEBRASKA

CITY           SKY/WX    TMP DP  RH WIND       PRES   REMARKS
GRAND ISLAND   MOSUNNY   84  73  69 SE12      29.93F HX  90
AURORA         MOSUNNY   84  74  72 SE12      29.93F HX  90
HASTINGS       SUNNY     85  72  65 E9        29.93F HX  91
HEBRON         SUNNY     89  73  58 S10       29.92F HX  96
HOLDREGE       SUNNY     85  67  54 SE9       29.93F
KEARNEY        SUNNY     85  72  65 SE8       29.93F HX  91
YORK           PTSUNNY   82  73  74 SE12G21   29.94F
$$

NEZ011>018-030>034-042>045-202000-
NORTHEAST NEBRASKA

CITY           SKY/WX    TMP DP  RH WIND       PRES   REMARKS
NORFOLK        SUNNY     83  66  56 E9        29.94F
ALBION         CLOUDY    80  70  71 E9        29.96S
BLAIR          PTSUNNY   80  68  67 S5        29.97F
COLUMBUS       MOSUNNY   81  70  69 E12       29.96F
FREMONT        SUNNY     81  65  57 SE15      29.97F
TEKAMAH        SUNNY     82  68  62 VRB5      29.96F
WAYNE          CLOUDY    81  68  66 SE7       29.96S
$$

NEZ050>053-065>068-078-088>093-202000-
SOUTHEAST NEBRASKA

CITY           SKY/WX    TMP DP  RH WIND       PRES   REMARKS
LINCOLN        SUNNY     81  69  67 SE16      29.96F
OMAHA EPPLEY   MOSUNNY   81  65  58 SE7       29.96F
BEATRICE       SUNNY     89  72  57 SE13G18   29.94F HX  95
FALLS CITY     CLOUDY    82  68  62 NE16G24   30.01R
NEBRASKA CITY  CLOUDY    78  66  66 SE17G23   29.99F
PLATTSMOUTH    CLOUDY    78  66  67 SE14G20   29.97F
$$

NEZ044-045-051>053-067-202000-
OMAHA AREA

CITY           SKY/WX    TMP DP  RH WIND       PRES   REMARKS
OMAHA EPPLEY   MOSUNNY   81  65  58 SE7       29.96F
BLAIR          PTSUNNY   80  68  67 S5        29.97F
FREMONT        SUNNY     81  65  57 SE15      29.97F
MILLARD        CLOUDY    82  67  60 SE10      29.96F
OFFUTT AFB     PTSUNNY   78  66  66 SE9       29.96F
PLATTSMOUTH    CLOUDY    78  66  67 SE14G20   29.97F
WAHOO          FAIR      79  65  62 SE12      29.96F
$$




USA.gov is the U.S. government's official web portal to all federal, state and local government web resources and services.